Hourly Data Report for October 13, 2013

All times are specified in Local Standard Time (LST). Add 1 hour to adjust for Daylight Saving Time where and when it is observed.

POND INLET A
NUNAVUT

72°41'22.000" N
77°58'08.000" W
61.60 m
2403206
71095
YIO

Download Data

Hourly Data (October 2013)
Hourly Data Report for October 13, 2013
Temp Definition
°C
Dew Point Temp Definition
°C
Rel Hum Definition
%
Wind Dir Definition
10's deg

Wind Spd Definition
km/h
Visibility Definition
km
Stn Press Definition
kPa
Hmdx Definition


Wind Chill Definition


Weather Definition


TIME
00:00 Legend Double Dagger -3.3 -4.1 94 6 5 9.7 100.21   -5 LegendNANA
01:00 Legend Double Dagger -2.8 -4.4 89 8 4 16.1 100.25   -4 LegendNANA
02:00 Legend Double Dagger -3.4 -5.3 87 7 5 16.1 100.27   -5 LegendNANA
03:00 Legend Double Dagger -3.1 -5.5 84 15 9 16.1 100.31   -7 LegendNANA
04:00 Legend Double Dagger -1.9 -4.9 80   0 16.1 100.31     LegendNANA
05:00 Legend Double Dagger -1.6 -5.1 77 28 4 16.1 100.33   -3 LegendNANA
06:00 Legend Double Dagger -2.3 -4.8 83 16 13 16.1 100.34   -7 LegendNANA
07:00 Legend Double Dagger -1.1 -4.9 75 LegendMM 4 16.1 100.37   -2 LegendNANA
08:00 Legend Double Dagger -1.2 -4.8 77 LegendMM 4 16.1 100.39   -3 LegendNANA
09:00 Legend Double Dagger -0.7 -3.7 80 LegendMM 15 16.1 100.39   -5 LegendNANA
10:00 Legend Double Dagger -0.8 -4.6 76 9 8 16.1 100.39   -4 LegendNANA
11:00 Legend Double Dagger -1.6 -5.3 76 11 5 16.1 100.36   -3 LegendNANA
12:00 Legend Double Dagger -3.2 -6.3 80 LegendMM 5 16.1 100.38   -5 LegendNANA
13:00 Legend Double Dagger -1.2 -4.4 79 14 11 16.1 100.38   -5 LegendNANA
14:00 Legend Double Dagger -1.1 -4.5 78 22 8 16.1 100.41   -4 LegendNANA
15:00 Legend Double Dagger -0.8 -4.2 78 LegendMM 4 16.1 100.42   -2 LegendNANA
16:00 Legend Double Dagger -1.4 -4.1 82 17 9 16.1 100.40   -5 LegendNANA
17:00 Legend Double Dagger -1.1 -4.0 81 LegendMM 8 16.1 100.39   -4 LegendNANA
18:00 Legend Double Dagger 0.0 -4.4 72 LegendMM 5 16.1 100.39   -2 LegendNANA
19:00 Legend Double Dagger 0.5 -4.5 69   0 16.1 100.39     LegendNANA
20:00 Legend Double Dagger -1.5 -4.3 81 LegendMM 4 16.1 100.40   -3 LegendNANA
21:00 Legend Double Dagger 0.1 -4.3 72   0 16.1 100.38     LegendNANA
22:00 Legend Double Dagger -0.2 -3.9 76 7 8 16.1 100.40   -3 LegendNANA
23:00 Legend Double Dagger 0.0 -3.7 76 7 18 16.1 100.36   -5 LegendNANA

Notes on Data Quality.

Legend

  • E = Estimated
  • M = Missing
  • NA = Not Available
  • ‡ = Partner data that is not subject to review by the National Climate Archives
Date modified: